Satellite-Ground Cal/Val Region Overpasses Predictions

Prediction of Satellite NPP Overpassing Cal/Val Region: PacNW

Region Location: (Latitude: 10.00, Longitude: 139.50) to (Latitude: 22.70, Longitude: 165.60).

Table of predicted overpasses for the next 14.0 days since TLE Epoch: 4/12/2025
Interval Starting Time Starting Location Ending Time Ending Location
1 04/12/2025 15:11:58 ( 22.70, 157.16) 04/12/2025 15:15:34 ( 10.01, 154.14)
2 04/13/2025 02:21:05 ( 10.02, 164.66) 04/13/2025 02:24:40 ( 22.64, 161.65)
3 04/13/2025 14:52:58 ( 22.66, 161.90) 04/13/2025 14:56:33 ( 10.04, 158.90)
4 04/14/2025 03:43:35 ( 10.06, 144.03) 04/14/2025 03:47:10 ( 22.68, 141.02)
5 04/14/2025 14:35:12 ( 18.35, 165.59) 04/14/2025 14:37:34 ( 10.01, 163.64)
6 04/14/2025 16:15:28 ( 22.69, 141.29) 04/14/2025 16:17:33 ( 15.35, 139.51)
7 04/15/2025 03:24:35 ( 10.03, 148.79) 04/15/2025 03:28:10 ( 22.65, 145.78)
8 04/15/2025 15:56:28 ( 22.65, 146.03) 04/15/2025 16:00:03 ( 10.03, 143.02)
9 04/16/2025 03:05:34 ( 10.01, 153.55) 04/16/2025 03:09:10 ( 22.69, 150.52)
10 04/16/2025 15:37:28 ( 22.67, 150.79) 04/16/2025 15:41:03 ( 10.05, 147.78)
11 04/17/2025 02:46:35 ( 10.05, 158.29) 04/17/2025 02:50:10 ( 22.67, 155.28)
12 04/17/2025 15:18:28 ( 22.69, 155.55) 04/17/2025 15:22:04 ( 10.01, 152.53)
13 04/18/2025 02:27:34 ( 10.03, 163.05) 04/18/2025 02:31:09 ( 22.65, 160.04)
14 04/18/2025 14:59:28 ( 22.65, 160.29) 04/18/2025 15:03:03 ( 10.03, 157.28)
15 04/19/2025 02:11:14 ( 19.41, 165.59) 04/19/2025 02:12:10 ( 22.69, 164.78)
16 04/19/2025 03:50:04 ( 10.01, 142.43) 04/19/2025 03:53:33 ( 22.28, 139.51)
17 04/19/2025 14:40:28 ( 22.67, 165.05) 04/19/2025 14:44:03 ( 10.05, 162.04)
18 04/19/2025 16:21:58 ( 22.67, 139.67) 04/19/2025 16:22:09 ( 22.02, 139.51)
19 04/20/2025 03:31:04 ( 10.06, 147.17) 04/20/2025 03:34:39 ( 22.68, 144.16)
20 04/20/2025 16:02:57 ( 22.68, 144.43) 04/20/2025 16:06:33 ( 10.00, 141.41)
21 04/21/2025 03:12:04 ( 10.04, 151.93) 04/21/2025 03:15:39 ( 22.67, 148.92)
22 04/21/2025 15:43:57 ( 22.69, 149.19) 04/21/2025 15:47:33 ( 10.01, 146.17)
23 04/22/2025 02:53:03 ( 10.03, 156.69) 04/22/2025 02:56:38 ( 22.65, 153.68)
24 04/22/2025 15:24:57 ( 22.64, 153.93) 04/22/2025 15:28:32 ( 10.03, 150.92)
25 04/23/2025 02:34:03 ( 10.02, 161.44) 04/23/2025 02:37:38 ( 22.65, 158.43)
26 04/23/2025 15:05:57 ( 22.65, 158.69) 04/23/2025 15:09:32 ( 10.03, 155.68)
27 04/24/2025 02:15:48 ( 12.66, 165.59) 04/24/2025 02:18:39 ( 22.70, 163.17)
28 04/24/2025 03:56:33 ( 10.02, 140.82) 04/24/2025 03:58:09 ( 15.66, 139.51)
29 04/24/2025 14:46:56 ( 22.66, 163.44) 04/24/2025 14:50:31 ( 10.04, 160.43)
30 04/25/2025 03:37:32 ( 10.01, 145.58) 04/25/2025 03:41:08 ( 22.69, 142.56)
31 04/25/2025 14:31:01 ( 11.81, 165.59) 04/25/2025 14:31:31 ( 10.05, 165.19)
32 04/25/2025 16:09:26 ( 22.67, 142.82) 04/25/2025 16:13:01 ( 10.05, 139.81)
